STARLINK-1021 (44726 NORAD) Tracking and Keplerian Element Data

This shows tracking and keplerian element data for the satellite.

Feedback or suggestion? Click here.




ElementValue
Catalog44726
NameSTARLINK-1021
Epoch Orbit161
Epoch Day93.91667824
Epoch Year2020
RAAN193.6433
Inclination52.9988
Eccentricity0.0001282
Argument of Perigee84.3842
Mean Anonmoly336.145
Mean Motion15.05588479
Decay Rate-0.00036758
L11 44726U 19074P 20093.91667824 -.00036758 00000-0 -25161-2 0 9999
L22 44726 52.9988 193.6433 0001282 84.3842 336.1450 15.05588479 1619

Live tracking and technical data element details for STARLINK-1021 (NORAD 44726). STARLINK-1021 can be tracked NOW for your location showing map with azimuth and elevation plus other details from your city location.

Track the satellite on the map from your city or location and see movement details for azimuth, elevation, latitude, longitude, range, height, and movement on the map or in text.







IsCatalogInMostPopularTable: catalog: 44726, numindb: 34
Update: records affected: 1



GetName: 44726 STARLINK-1021

Hit Count: updated at: Fri, 10 Apr 2020 18:54:52 GMT